Weather Service Report


810 
ASUS46 KSTO 061609
RWRCA 

NORTHERN AND CENTRAL CA REGIONAL WEATHER ROUNDUP
NATIONAL WEATHER SERVICE SACRAMENTO CA 
800 AM PST FRI MAR 06 2015

NOTE: FAIR INDICATES FEW OR NO CLOUDS BELOW 12,000 FEET WITH NO
SIGNIFICANT WEATHER AND/OR OBSTRUCTIONS TO VISIBILITY.

CAZ001-003-061700-
NORTHWEST AREA
  
CITY           SKY/WX    TMP DP  RH WIND       PRES   REMARKS
CRESCENT CITY  SUNNY     45  40  82 CALM      30.36R HAZE             
ARCATA         NOT AVBL                                               
SHELTER COVE   NOT AVBL                                               
UKIAH          SUNNY     41  35  79 CALM      30.34R                  
$$

CAZ006-505>513-061700-
BAY AREA
  
CITY           SKY/WX    TMP DP  RH WIND       PRES   REMARKS
SANTA ROSA     SUNNY     45  40  82 N3        30.30R                  
SAN RAFAEL     N/A       42  MM  MM MISG
NAPA           SUNNY     44  39  82 N3        30.31R                  
CONCORD        SUNNY     47  38  71 S5        30.31S                  
OAKLAND CITY   N/A       48  MM  MM MISG
OAKLAND        SUNNY     51  43  74 CALM      30.30R                  
SAN FRAN CITY  N/A       53  MM  75 MISG
SAN FRAN ARPT  SUNNY     54  51  90 E3        30.30R                  
LIVERMORE      SUNNY     43  36  76 CALM      30.31R                  
HAYWARD        SUNNY     53  38  56 NE6       30.30R                  
REDWOOD CITY   N/A       MM  MM  MM MISG
MOFFETT ARPT   SUNNY     51  42  71 CALM      30.31R                  
SAN JOSE ARPT  SUNNY     49  40  71 CALM      30.30R                  
$$
CAZ034-037-514>518-061700-
CENTRAL COAST
  
CITY           SKY/WX    TMP DP  RH WIND       PRES   REMARKS
WATSONVILLE    SUNNY     50  41  71 CALM      30.28S                  
SALINAS        SUNNY     50  38  63 E9        30.29R                  
MONTEREY       SUNNY     53  36  52 E7        30.26S                  
PT PIEDRAS BLS NOT AVBL                                               
SAN LUIS OBISP SUNNY     57  43  59 CALM      30.21S                  
SANTA MARIA    SUNNY     50  41  71 S5        30.20R                  
$$
CAZ015-016-061700-
NORTHERN SACRAMENTO VALLEY
  
CITY           SKY/WX    TMP DP  RH WIND       PRES   REMARKS
REDDING        SUNNY     42  35  76 CALM      30.30S                  
RED BLUFF      SUNNY     45  33  63 NW6       30.31S                  
OROVILLE       SUNNY     46  41  82 CALM      30.31S                  
$$
CAZ016>018-061700-
SOUTHERN SACRAMENTO VALLEY
  
CITY           SKY/WX    TMP DP  RH WIND       PRES   REMARKS
AUBURN         SUNNY     52  34  50 E6        30.29R                  
BEALE AFB      SUNNY     46  46  99 N2        30.29R                  
LINCOLN        FAIR      43  39  87 CALM      30.29S                  
MARYSVILLE     SUNNY     48  40  73 N5        30.31R                  
SAC INTL ARPT  SUNNY     45  41  86 CALM      30.30R                  
MATHER AIRPORT SUNNY     46  41  81 CALM      30.30R                  
DOWNTOWN SAC   N/A       46  MM  MM MISG
SAC EXEC ARPT  SUNNY     47  42  83 CALM      30.30R                  
VACAVILLE      SUNNY     50  41  71 CALM      30.31S                  
TRAVIS AFB     SUNNY     46  42  86 CALM      30.29R                  
$$
CAZ019>021-061700-
SAN JOAQUIN VALLEY
  
CITY           SKY/WX    TMP DP  RH WIND       PRES   REMARKS
STOCKTON       SUNNY     46  41  82 CALM      30.30R                  
MODESTO        SUNNY     49  41  74 NW6       30.30R                  
MERCED         SUNNY     42  38  85 CALM      30.30R                  
LEMOORE        SUNNY     48  38  68 CALM      30.31R                  
FRESNO         SUNNY     49  41  74 CALM      30.31R                  
HANFORD        SUNNY     47  42  83 CALM      30.31R HAZE             
PORTERVILLE    SUNNY     48  43  81 CALM      30.30R                  
BAKERSFIELD    SUNNY     51  37  58 SE8       30.30R                  
$$
CAZ011-012-071-061700-
NORTHERN MOUNTAINS
  
CITY           SKY/WX    TMP DP  RH WIND       PRES   REMARKS
YREKA          SUNNY     32  28  85 CALM      30.42R                  
MOUNT SHASTA   SUNNY     36  25  64 CALM      30.37S                  
ALTURAS        SUNNY     28  21  75 CALM      30.43R                  
$$
CAZ011-012-071-061700-
SIERRA NEVADA MTNS
  
CITY           SKY/WX    TMP DP  RH WIND       PRES   REMARKS
BLUE CANYON    SUNNY     50   7  17 NE5       30.36R                  
TRUCKEE        NOT AVBL                                               
TAHOE VLY ARPT SUNNY     27  19  72 S5        30.42S WCI  22          
MAMMOTH LAKES  FAIR      28  12  50 CALM      30.45R                  
$$
  

Return to Home page


Western Regional Climate Center, wrcc@dri.edu